EW5463 Weather Reports


time (UTC)temp
C
wind
direction
speed
KPH
gust
KPH
rain 1hr
cm
rain 24hr
cm
rain mn
cm
humidity
%
barometer
mb
20260906110050 22 0 0.0 0.0 0.00 0.00 0.00 94 1010.7
20260906104557 21 0 0.0 0.0 0.00 0.00 0.00 94 1010.5
20260906103059 22 0 0.0 0.0 0.00 0.00 0.00 94 1010.3
20260906101558 22 0 0.0 0.0 0.00 0.00 0.00 94 1010.3
20260906100051 22 0 0.0 0.0 0.00 0.00 0.00 94 1010.3
20260906094611 22 0 0.0 0.0 0.00 0.00 0.00 94 1010.4
20260906093128 22 0 0.0 0.0 0.00 0.00 0.00 94 1010.4
20260906091612 22 0 0.0 0.0 0.00 0.00 0.00 93 1010.3
20260906084554 22 0 0.0 0.0 0.00 0.00 0.00 93 1010.5
20260906083054 22 0 0.0 0.0 0.00 0.00 0.00 93 1010.3
20260906081549 22 0 0.0 0.0 0.00 0.00 0.00 93 1009.9
20260906074558 22 0 0.0 0.0 0.00 0.00 0.00 92 1010.0
20260906073053 22 0 0.0 0.0 0.00 0.00 0.00 92 1009.9
20260906071548 22 0 0.0 0.0 0.00 0.00 0.00 92 1010.3
20260906070057 22 0 0.0 0.0 0.00 0.00 0.00 92 1010.3
20260906064550 23 0 0.0 0.0 0.00 0.00 0.00 92 1010.6
20260906063051 23 0 0.0 0.0 0.00 0.00 0.00 91 1010.5
20260906061558 23 0 0.0 0.0 0.00 0.00 0.00 91 1010.6
20260906060057 23 0 0.0 0.0 0.00 0.00 0.00 91 1010.9
20260906054550 23 0 0.0 0.0 0.00 0.00 0.00 90 1010.9
20260906053057 23 0 0.0 0.0 0.00 0.00 0.00 90 1011.0
20260906051556 23 0 0.0 0.0 0.00 0.00 0.00 89 1011.1
20260906050105 23 0 0.0 0.0 0.00 0.00 0.00 89 1011.2
20260906044556 24 0 0.0 0.0 0.00 0.00 0.00 88 1011.2
20260906043056 24 0 0.0 0.0 0.00 0.00 0.00 87 1011.3
20260906041555 25 0 0.0 0.0 0.00 0.00 0.00 86 1011.3
20260906040100 25 0 0.0 0.0 0.00 0.00 0.00 85 1011.1
20260906034546 25 0 0.0 0.0 0.00 0.00 0.00 84 1011.3
20260906033049 25 0 0.0 0.0 0.00 0.00 0.00 84 1011.1
20260906031555 25 0 0.0 0.0 0.00 0.00 0.00 83 1011.2
20260906030050 26 0 0.0 0.0 0.00 0.00 0.00 80 1011.1
20260906024550 26 0 0.0 0.0 0.00 0.00 0.00 81 1011.0
20260906023056 26 0 0.0 0.0 0.00 0.00 0.00 82 1010.8
20260906021556 26 0 0.0 0.0 0.00 0.00 0.00 84 1010.7
20260906020052 26 0 0.0 0.0 0.00 0.00 0.00 83 1010.7
20260906014618 26 0 0.0 0.0 0.00 0.00 0.00 81 1010.6
20260906013055 27 0 0.0 0.0 0.00 0.00 0.00 79 1010.5
20260906011549 27 0 0.0 0.0 0.00 0.00 0.00 79 1010.2
20260906010057 27 0 0.0 1.6 0.00 0.00 0.00 76 1010.5
20260906004608 28 0 0.0 0.0 0.00 0.00 0.00 76 1010.6
20260906003054 28 0 0.0 0.0 0.00 0.00 0.00 75 1010.8
20260906001548 28 0 0.0 0.0 0.00 0.00 0.00 73 1010.7
20260906000056 28 0 0.0 3.2 0.00 0.00 0.00 73 1010.7
20260905234554 29 270 0.0 3.2 0.00 0.00 0.00 71 1010.7
20260905233053 30 0 0.0 4.8 0.00 0.00 0.00 70 1010.9
20260905231558 30 270 3.2 6.4 0.00 0.00 0.00 69 1010.8
20260905230052 30 270 4.8 8.0 0.00 0.00 0.00 70 1010.6
20260905224610 30 0 0.0 0.0 0.00 0.00 0.00 69 1010.2
20260905223054 30 0 0.0 0.0 0.00 0.00 0.00 68 1010.3
20260905221607 31 270 1.6 6.4 0.00 0.00 0.00 66 1009.1
20260905220057 32 0 0.0 0.0 0.00 0.00 0.00 59 1008.8
20260905214549 32 0 0.0 0.0 0.00 0.00 0.00 56 1008.9
20260905213058 33 0 0.0 0.0 0.00 0.00 0.00 55 1009.0
20260905211601 34 0 0.0 1.6 0.00 0.00 0.00 55 1009.3
20260905210057 35 0 0.0 0.0 0.00 0.00 0.00 56 1008.8
20260905204549 35 0 0.0 0.0 0.00 0.00 0.00 54 1008.4
20260905203105 35 0 0.0 0.0 0.00 0.00 0.00 58 1008.8
20260905201615 34 0 0.0 0.0 0.00 0.00 0.00 64 1008.6
20260905200057 35 0 0.0 0.0 0.00 0.00 0.00 59 1008.6
20260905194551 36 0 0.0 0.0 0.00 0.00 0.00 56 1008.8
20260905193112 38 0 0.0 0.0 0.00 0.00 0.00 45 1008.8
20260905191554 38 0 0.0 1.6 0.00 0.00 0.00 43 1009.1
20260905190058 39 0 0.0 1.6 0.00 0.00 0.00 45 1009.1
20260905184556 38 0 0.0 0.0 0.00 0.00 0.00 47 1009.4
20260905183048 38 0 0.0 4.8 0.00 0.00 0.00 47 1009.8
20260905181606 39 0 0.0 4.8 0.00 0.00 0.00 47 1010.0
20260905180052 38 0 0.0 0.0 0.00 0.00 0.00 49 1010.5
20260905174604 37 0 0.0 0.0 0.00 0.00 0.00 53 1010.9
20260905173055 37 0 0.0 1.6 0.00 0.00 0.00 54 1011.1
20260905171550 36 0 0.0 0.0 0.00 0.00 0.00 56 1011.3
20260905170047 35 0 0.0 0.0 0.00 0.00 0.00 59 1011.5
20260905164557 35 0 0.0 0.0 0.00 0.00 0.00 61 1011.7
20260905163051 34 0 0.0 0.0 0.00 0.00 0.00 63 1011.9
20260905161559 33 0 0.0 0.0 0.00 0.00 0.00 65 1012.1
20260905160100 33 0 0.0 0.0 0.00 0.00 0.00 67 1012.3
20260905154557 33 0 0.0 0.0 0.00 0.00 0.00 67 1012.5
20260905153058 32 0 0.0 0.0 0.00 0.00 0.00 71 1012.6
20260905151601 32 0 0.0 0.0 0.00 0.00 0.00 72 1012.7
20260905150055 31 0 0.0 0.0 0.00 0.00 0.00 73 1012.9
20260905144550 31 0 0.0 0.0 0.00 0.00 0.00 76 1013.0
20260905143058 30 0 0.0 1.6 0.00 0.00 0.00 78 1013.0
20260905141555 30 0 0.0 0.0 0.00 0.00 0.00 79 1013.2
20260905140105 29 0 0.0 0.0 0.00 0.00 0.00 82 1013.3
20260905134557 28 0 0.0 0.0 0.00 0.00 0.00 85 1013.3
20260905133052 28 0 0.0 0.0 0.00 0.00 0.00 87 1013.4
20260905131556 27 0 0.0 0.0 0.00 0.00 0.00 89 1013.3
20260905130057 27 0 0.0 0.0 0.00 0.00 0.00 92 1013.4
20260905124601 26 0 0.0 0.0 0.00 0.00 0.00 92 1013.3
20260905123056 26 0 0.0 0.0 0.00 0.00 0.00 93 1013.2
20260905121547 26 0 0.0 0.0 0.00 0.00 0.00 93 1013.2
20260905120058 25 0 0.0 0.0 0.00 0.00 0.00 93 1013.1
20260905114553 25 0 0.0 0.0 0.00 0.00 0.00 93 1013.0
20260905113048 25 0 0.0 0.0 0.00 0.00 0.00 93 1012.8
20260905111557 25 0 0.0 0.0 0.00 0.00 0.00 93 1012.7